User: anonymous   Login
Location: Bothwell
(42.3833°S, 147.0000°E)
Time: 00:43:36
(UTC+10:00)
Language:

EO-79 - Orbit

View from above orbital plane
View from above orbital plane
View from above satellite
View from above satellite

Ground track
Ground track

The orbit data is extracted from the following two-line orbital elements,

1 40025U 14033R   22274.11218580  .00004068  00000-0  41756-3 0  9999
2 40025  97.9656 212.3842 0013714  71.6659 288.6049 14.90910097450014
Epoch (UTC): 01 October 2022 02:41:32
Eccentricity: 0.0013714
inclination: 97.9656°
perigee height: 585 km
apogee height: 604 km
right ascension of ascending node: 212.3842°
argument of perigee: 71.6659°
revolutions per day: 14.90910097
mean anomaly at epoch: 288.6049°
orbit number at epoch: 45001

The dashed part of the orbit path shows where the satellite is in the earth's shadow,  

DLR